Regional Weather Roundup
Issued by NWS

Home | Current Version | Previous Version | Text Only | Print | Product List | Glossary Off
Versions: 1 2 3 4 5 6 7 8 9 10 11 12 13 14 15 16 17 18 19 20 21 22 23 24 25 26 27 28 29 30 31 32 33 34 35 36 37 38 39 40 41 42 43 44 45 46 47 48 49 50

000
ASUS43 KDTX 291410
RWRMI
MICHIGAN HOURLY REGIONAL WEATHER ROUNDUP
NATIONAL WEATHER SERVICE DETROIT/PONTIAC MI
1000 AM EDT FRI MAY 29 2015

NOTE: "FAIR" INDICATES FEW OR NO CLOUDS BELOW 12,000 FEET WITH NO
SIGNIFICANT WEATHER AND/OR OBSTRUCTION TO VISIBILITY.

MIZ047>049-052>055-059>063-066>070-074>076-081>083-291500-
SOUTHEAST LOWER MICHIGAN

CITY           SKY/WX    TMP DP  RH WIND       PRES   REMARKS
ADRIAN         PTSUNNY   74  64  71 S6        30.13S
ALMA           CLOUDY    70  62  74 S6        30.10F
ANN ARBOR      MOSUNNY   73  63  70 S8        30.13S
BAD AXE        CLOUDY    70  55  59 S12       30.13S
CARO           CLOUDY    71  60  67 S9        30.11F
DETROIT CITY   PTSUNNY   73  60  63 SE8       30.14F
DETROIT        CLOUDY    75  61  61 S10       30.14S
FLINT          CLOUDY    74  61  63 S8        30.12S
GROSSE ILE     PTSUNNY   68  63  83 S7        30.13S
HILLSDALE      PTSUNNY   74  65  75 S8        30.13S
HOWELL         CLOUDY    72  61  67 S8        30.12F

CITY           SKY/WX    TMP DP  RH WIND       PRES   REMARKS
JACKSON        PTSUNNY   73  64  73 S7        30.12F
LAMBERTVILLE   PTSUNNY   73  63  68 S6        30.14S
LANSING        CLOUDY    72  63  73 S7        30.11S
LAPEER         FAIR      71  58  64 S7        30.14S
MASON          PTSUNNY   69  62  79 S6        30.12S
MONROE         PTSUNNY   73  63  68 S8        30.12S
MT. CLEMENS    CLOUDY    70  60  70 S9        30.13S
PONTIAC        CLOUDY    72  60  66 S6        30.14S
PORT HOPE        N/A     72  56  57 S9        30.11S
PORT HURON     PTSUNNY   72  59  64 S6        30.15S
TRI CITIES     CLOUDY    72  59  63 S12       30.10F
MIDLAND        FAIR      71  58  62 S5        30.09F
TROY           PTSUNNY   74  61  63 S5        30.15F
SAGINAW HB     CLOUDY    70  59  68 S12       30.10S
$$
MIZ043>046-050>051-056>058-064>065-071>073-077>080-291500-
SOUTHWEST LOWER MICHIGAN

CITY           SKY/WX    TMP DP  RH WIND       PRES   REMARKS
BATTLE CREEK   CLOUDY    73  64  73 S8        30.12R
BENTON HARBOR  PTSUNNY   74  64  71 S9        30.07S
BIG RAPIDS     PTSUNNY   68  58  70 SE7       30.08S
COLDWATER      CLOUDY    72  63  74 S7        30.12S
FREMONT        PTSUNNY   68  61  78 S6        30.06S
HOLLAND        PTSUNNY   71  63  75 S7        30.08S
GRAND RAPIDS   CLOUDY    71  62  73 S12       30.08F
IONIA          PTSUNNY   72  61  68 S8        30.09S
KALAMAZOO      CLOUDY    72  63  73 S10       30.11R
LUDINGTON      CLOUDY    73  64  72 S10       30.04R
MARSHALL       CLOUDY    74  65  73 S7        30.11R
MOUNT PLEASANT CLOUDY    69  59  69 S6        30.09S
MUSKEGON       CLOUDY    72  62  71 S7        30.06S
SOUTH HAVEN    PTSUNNY   74  63  69 S8        30.07S
$$
MIZ016>042-291500-
NORTHERN LOWER MICHIGAN

CITY           SKY/WX    TMP DP  RH WIND       PRES   REMARKS
ALPENA         CLOUDY    69  55  60 S14       30.08F
BEAVER ISLAND  CLOUDY    65  56  70 S7        30.01S
BELLAIRE       CLOUDY    71  58  63 S6        30.03S
CADILLAC       PTSUNNY   70  60  70 S12       30.07S
CHARLEVOIX     CLOUDY    70  59  67 S8        30.05S
FRANKFORT      CLOUDY    73  57  56 S9G17     30.02S
GAYLORD        CLOUDY    67  58  72 S15       30.06F
GRAYLING       PTSUNNY   70  58  66 S7        30.08S
HARBOR SPRINGS CLOUDY    69  58  68 SW3       30.02F
HOUGHTON LAKE  PTSUNNY   68  57  68 S10       30.09F
MANISTEE       CLOUDY    70  57  64 S6        30.03S
OSCODA         CLOUDY    69  56  62 S9        30.10S
PELLSTON       CLOUDY    68  59  73 SE5       30.03F
ROGERS CITY    CLOUDY    70  59  68 S9        30.06F
TRAVERSE CITY  CLOUDY    72  60  66 VRB5      30.00F
$$
MIZ007>008-015-291500-
EASTERN UPPER MICHIGAN

CITY           SKY/WX    TMP DP  RH WIND       PRES   REMARKS
KINROSS        CLOUDY    64  57  77 SE10      30.03F
MACKINAC ISLAN CLOUDY    64  55  73 SE7       30.02F
NEWBERRY       CLOUDY    65  56  74 S12       30.00F
S. S. MARIE    PTSUNNY   62  54  74 E7        30.03F
MUNISING         N/A     63  54  72 S6        29.96F
$$
MIZ004>006-011>014-085-291500-
CENTRAL UPPER MICHIGAN

CITY           SKY/WX    TMP DP  RH WIND       PRES   REMARKS
MANISTIQUE     CLOUDY    55  52  87 S5        30.00S
ESCANABA       CLOUDY    59  52  77 S6        29.97S
MENOMINEE      CLOUDY    64  55  72 S9        29.97S
SAWYER-GWINN   PTSUNNY   61  55  82 S12       29.95
$$
MIZ001>003-009>011-084-291500-
WESTERN UPPER MICHIGAN

CITY           SKY/WX    TMP DP  RH WIND       PRES   REMARKS
IRON MOUNTAIN  LGT RAIN  62  58  86 SE7       29.94F
HOUGHTON       CLOUDY    64  57  78 SW3       29.90S
COPPER HARBOR    N/A     65  56  72 SW8       29.88S
IRONWOOD       CLOUDY    63  57  82 S7        29.85F
$$

ABBREVIATIONS USED IN REMARKS
   TC - TEMPERATURE IN CELSIUS
  WCI - WIND CHILL INDEX
   HX - HEAT INDEX
  VSB - VISIBILITY



USA.gov is the U.S. government's official web portal to all federal, state and local government web resources and services.